Location: Newark
(25.0000°N, 73.5000°E)
Time: 00:18:56
(UTC+00:00)

Tiros 1 despin weight - Pass Details

Date: 09 March 2021
Orbit: 593 x 641 km, 48.2° (Epoch: 15 April)

Event Time Altitude Azimuth Distance (km) Brightness Sun altitude
Rises 00:25:22 0° 303° (WNW) 2,930 - -13.5°
Reaches altitude 10° 00:27:51 10° 295° (WNW) 2,023 - -12.9°
Exits shadow 00:29:09 17° 286° (WNW) 1,592 ? -12.6°
Maximum altitude 00:32:04 34° 230° (SW) 1,042 ? -12.0°
Drops below altitude 10° 00:36:18 10° 165° (SSE) 2,018 ? -11.0°
Sets 00:38:46 0° 156° (SSE) 2,922 ? -10.5°
